Content
SEND FEEDBACK

Daily
Averages
Monthly
Summary
United States of America

PACIFIC GROVE, CALIFORNIA


Home > North America > United States > California
Elevation: 331 feet     Latitude: 36 36N     Longitude: 121 55W

WEATHER
 
SELECT A DAY
Number of Records: 191,799;   Date Range: 7/1/96 - 7/7/14
 
SHARE

PRINT THIS DATA

[ ← Previous Day ]
WEATHER ALMANAC - MAY 25, 2013
[ Next Day → ]
[ °C ]   °F
Weather ElementAverageHighLow
Temperature54.2 °F57.9 °F (12:54 pm)50 °F (1:54 am)
Dewpoint45.5 °F48.9 °F (10:54 pm)44.1 °F (1:54 am)
Humidity72.8 %86 % (10:54 pm)62 % (12:54 pm)
Barometer30.11 in30.16 in (10:54 pm)30.05 in (2:22 am)
Wind Speed8.8 mph12.7 mph (12:54 pm)
Wind Gust21.9 mph (3:54 pm)
Weather ElementAverage
Visibility10 mi
Wind DirectionWSW (246.7 °)

Weather ElementTotal
Precipitation---
Heating Degree Days11.1 (Base 65)
Growing Degree Days4 (Base 50)
Averaged from 30 records on May 25, 2013
WEATHER CONDITIONS BREAKOUT
WIND DIRECTION BREAKOUT
WEATHER BY HOUR - MAY 25, 2013
[ °C ]   °F
Local TimeTemperatureDewpointHumidityBarometerVisibilityWind DirectionWind SpeedGust SpeedPrecipitationEventsConditions
1:54 AM50.0 °F44.1 °F80 %30.10 in10.0 miSSW (200°)5.8 mphMostly Cloudy
2:22 AM51.8 °F44.6 °F76 %30.05 in10.0 miSSW (200°)4.6 mphOvercast
2:54 AM51.1 °F45.0 °F80 %30.09 in10.0 miWSW (240°)6.9 mphOvercast
3:25 AM51.8 °F44.6 °F76 %30.05 in10.0 miSW (230°)5.8 mphOvercast
3:54 AM51.1 °F44.1 °F77 %30.09 in10.0 miSW (230°)5.8 mphOvercast
4:36 AM51.8 °F44.6 °F76 %30.05 in10.0 miWSW (250°)5.8 mphOvercast
4:54 AM51.1 °F44.1 °F77 %30.09 in10.0 miSW (230°)4.6 mphOvercast
5:54 AM51.1 °F44.1 °F77 %30.09 in10.0 miWSW (250°)8.1 mphMostly Cloudy
6:54 AM51.1 °F44.1 °F77 %30.10 in10.0 miWest (260°)6.9 mphOvercast
7:54 AM52.0 °F44.1 °F74 %30.11 in10.0 miWSW (250°)10.4 mphOvercast
8:54 AM53.1 °F44.1 °F71 %30.12 in10.0 miWest (260°)6.9 mphOvercast
9:54 AM54.0 °F45.0 °F72 %30.12 in10.0 miWest (270°)11.5 mphOvercast
10:54 AM55.9 °F45.0 °F67 %30.13 in10.0 miWest (280°)11.5 mphOvercast
11:54 AM55.9 °F45.0 °F67 %30.13 in10.0 miWSW (240°)10.4 mphOvercast
12:54 PM57.9 °F45.0 °F62 %30.13 in10.0 miWSW (240°)12.7 mph18.4 mphMostly Cloudy
1:35 PM57.2 °F44.6 °F63 %30.10 in10.0 miWest (270°)12.7 mphPartly Cloudy
1:54 PM57.9 °F45.0 °F62 %30.14 in10.0 miWest (270°)11.5 mphScattered Clouds
2:54 PM57.9 °F45.0 °F62 %30.14 in10.0 miWest (260°)12.7 mph19.6 mphPartly Cloudy
3:42 PM57.2 °F44.6 °F63 %30.10 in10.0 miWest (270°)11.5 mph19.6 mphMostly Cloudy
3:54 PM57.9 °F46.0 °F65 %30.14 in10.0 miWSW (250°)11.5 mph21.9 mphScattered Clouds
4:52 PM57.2 °F46.4 °F67 %30.10 in10.0 miWSW (250°)10.4 mph20.7 mphMostly Cloudy
4:54 PM57.0 °F46.0 °F67 %30.14 in10.0 miSW (230°)11.5 mph20.7 mphMostly Cloudy
5:54 PM55.9 °F46.0 °F69 %30.13 in10.0 miWSW (240°)6.9 mph18.4 mphOvercast
6:54 PM55.0 °F46.9 °F74 %30.13 in10.0 miSW (230°)11.5 mphOvercast
7:11 PM55.4 °F46.4 °F72 %30.09 in10.0 miWSW (240°)9.2 mphOvercast
7:54 PM54.0 °F48.0 °F80 %30.14 in10.0 miWSW (250°)8.1 mphOvercast
8:54 PM53.1 °F46.9 °F80 %30.14 in10.0 miWest (270°)6.9 mph16.1 mphOvercast
9:54 PM54.0 °F48.0 °F80 %30.15 in10.0 miWSW (240°)5.8 mph17.3 mphOvercast
10:54 PM53.1 °F48.9 °F86 %30.16 in10.0 miWSW (250°)5.8 mphOvercast
11:54 PM53.1 °F48.9 °F86 %30.16 in10.0 miWSW (250°)9.2 mphOvercast
Hourly data recorded from KMRY, located miles away from Pacific Grove, California







STORIES FROM OUR PARTNERS